Mountain Home, AR

6:39 PM CDT on April 21, 2018 (GMT -0500)
Baxter County Regional

Weather History for KBPK - November, 2012

Change the Weather History Date:

Tuesday, November 6, 2012

  Actual Average (KFLP) Record (KFLP)
Temperature  
Mean Temperature 50 °F -  
Max Temperature 55 °F 61 °F 82 °F (1999)
Min Temperature 44 °F 41 °F 26 °F (2010)
Degree Days  
Heating Degree Days 16    
Moisture  
Dew Point 42 °F    
Average Humidity 83    
Maximum Humidity 100    
Minimum Humidity 55    
Precipitation  
Precipitation 0.00 in - - ()
Sea Level Pressure  
Sea Level Pressure 30.04 in    
Wind  
Wind Speed 1 mph (West)    
Max Wind Speed 7 mph    
Max Gust Speed -    
Visibility 7 miles    
Events Rain    
Averages and records for this station are not official NWS values.
T = Trace of Precipitation, MM = Missing Value Source: NWS Daily Summary

Daily Weather History Graph

Daily Weather History Graph

Search for Another Location

Airport or City:

Astronomy

Nov. 06, 2012 Rise Set
Actual Time 6:38 AM CST 5:08 PM CST
Civil Twilight 6:11 AM CST 5:35 PM CST
Nautical Twilight 5:40 AM CST 6:05 PM CST
Astronomical Twilight 5:10 AM CST 6:35 PM CST
Moon 11:45 PM CST (11/6) 12:32 PM CST (11/6)
Length of Visible Light 11h 23m
Length of Day
10h 29m
Waning Gibbous, 53% of the Moon is Illuminated
Nov 6
Waning Gibbous
Nov 6
Last Quarter
Nov 13
New
Nov 20
First Quarter
Nov 28
Full

Hourly Weather History & Observations

Time (CST) Temp. Windchill Dew Point Humidity Pressure Visibility Wind Dir Wind Speed Gust Speed Precip Events Conditions
12:12 AM 44.6 °F - 42.8 °F 93% 30.04 in 8.0 mi Calm Calm - N/A   Overcast
12:53 AM 45.0 °F - 43.0 °F 93% 30.05 in 4.0 mi Calm Calm - N/A   Overcast
1:09 AM 44.6 °F - 44.6 °F 100% 30.03 in 2.5 mi Calm Calm - N/A   Overcast
1:17 AM 44.6 °F - 44.6 °F 100% 30.04 in 2.0 mi Calm Calm - 0.00 in Rain Light Rain
1:31 AM 44.6 °F - 44.6 °F 100% 30.03 in 3.0 mi Calm Calm - 0.00 in   Overcast
1:53 AM 45.0 °F - 44.1 °F 97% 30.04 in 3.0 mi Calm Calm - 0.00 in   Overcast
2:01 AM 44.6 °F - 44.6 °F 100% 30.04 in 2.5 mi Calm Calm - 0.00 in Rain Light Rain
2:27 AM 44.6 °F 43.1 °F 42.8 °F 93% 30.04 in 3.0 mi Variable 3.5 mph - 0.01 in   Overcast
3:53 AM 45.0 °F 42.6 °F 45.0 °F 100% 30.05 in 5.0 mi NW 4.6 mph - N/A   Overcast
4:31 AM 44.6 °F 43.1 °F 44.6 °F 100% 30.04 in 7.0 mi NNW 3.5 mph - N/A   Overcast
4:53 AM 44.1 °F - 44.1 °F 100% 30.05 in 6.0 mi Calm Calm - N/A   Overcast
5:53 AM 44.1 °F - 44.1 °F 100% 30.05 in 7.0 mi Calm Calm - N/A   Overcast
6:53 AM 45.0 °F - 45.0 °F 100% 30.05 in 7.0 mi Calm Calm - N/A   Overcast
7:53 AM 45.0 °F - 44.1 °F 97% 30.09 in 5.0 mi Calm Calm - N/A   Overcast
8:02 AM 44.6 °F - 44.6 °F 100% 30.08 in 6.0 mi Calm Calm - N/A   Overcast
8:53 AM 46.0 °F - 43.0 °F 89% 30.08 in 6.0 mi Calm Calm - N/A   Overcast
9:53 AM 46.0 °F 43.9 °F 42.1 °F 86% 30.09 in 7.0 mi West 4.6 mph - N/A   Overcast
10:07 AM 46.4 °F 43.5 °F 41.0 °F 81% 30.07 in 8.0 mi SW 5.8 mph - N/A   Overcast
10:53 AM 46.0 °F 42.5 °F 39.9 °F 79% 30.07 in 9.0 mi WSW 6.9 mph - N/A   Overcast
11:53 AM 48.0 °F - 39.9 °F 74% 30.05 in 10.0 mi Variable 3.5 mph - N/A   Overcast
12:49 PM 50.0 °F - 39.2 °F 66% 30.02 in 10.0 mi Calm Calm - N/A   Scattered Clouds
12:53 PM 50.0 °F - 39.9 °F 68% 30.02 in 10.0 mi Variable 5.8 mph - N/A   Mostly Cloudy
1:53 PM 52.0 °F - 41.0 °F 66% 29.99 in 9.0 mi Calm Calm - N/A   Overcast
2:53 PM 54.0 °F - 39.9 °F 59% 29.98 in 10.0 mi North - - N/A   Unknown
3:53 PM 55.0 °F - 39.0 °F 55% 29.98 in 10.0 mi Calm Calm - N/A   Clear
4:53 PM 53.1 °F - 39.9 °F 61% 29.97 in 9.0 mi Calm Calm - N/A   Clear
5:53 PM 53.1 °F - 39.0 °F 59% 29.99 in 10.0 mi Variable 4.6 mph - N/A   Clear
6:53 PM 52.0 °F - 39.0 °F 61% 30.01 in 10.0 mi Variable 3.5 mph - N/A   Clear
7:53 PM 48.0 °F - 39.0 °F 71% 30.01 in 10.0 mi Calm Calm - N/A   Clear
8:53 PM 45.0 °F - 39.0 °F 80% 30.03 in 10.0 mi Calm Calm - N/A   Clear
9:53 PM 46.0 °F - 37.9 °F 73% 30.04 in 10.0 mi Calm Calm - N/A   Clear
10:53 PM 45.0 °F - 37.0 °F 74% 30.03 in 10.0 mi Calm Calm - N/A   Clear
11:53 PM 44.1 °F - 37.0 °F 76% 30.02 in 10.0 mi Calm Calm - N/A   Clear